NKS1480 KPHL-KMCO

Flight info

Callsign NKS1480
Flight time 1h 59m
Altitude 34000
Route OOD TEBEE HAYDO TRPOD Q409 CRPLR Q85 LPERD SNFLD3
Aircraft A21N/M-SDE2E3FGHIJ1RWXY/LB1

Departure

Time 2026-05-04 08:16
Airport Philadelphia International Airport (KPHL)

Arrival

Time 2026-05-04 10:16
Airport Orlando International Airport (KMCO)
Time Latitude Longitude Altitude Speed Heading
2026-05-04 07:36 39.87395 -75.24169 28 ft 0 kts 48°
2026-05-04 08:05 39.87383 -75.24188 30 ft 4 kts 58°
2026-05-04 08:06 39.87375 -75.24218 28 ft 4 kts 101°
2026-05-04 08:06 39.87382 -75.24232 27 ft 2 kts 173°
2026-05-04 08:10 39.87324 -75.23866 27 ft 14 kts 75°
2026-05-04 08:11 39.87350 -75.23737 27 ft 15 kts 77°
2026-05-04 08:11 39.87405 -75.23455 24 ft 17 kts 75°
2026-05-04 08:11 39.87437 -75.23304 25 ft 18 kts 75°
2026-05-04 08:12 39.87469 -75.23145 25 ft 19 kts 78°
2026-05-04 08:12 39.87498 -75.22978 25 ft 19 kts 77°
2026-05-04 08:12 39.87534 -75.22805 27 ft 20 kts 76°
2026-05-04 08:12 39.87569 -75.22626 24 ft 21 kts 76°
2026-05-04 08:13 39.87562 -75.22543 24 ft 8 kts 138°
2026-05-04 08:13 39.87524 -75.22529 24 ft 9 kts 175°
2026-05-04 08:13 39.87471 -75.22550 25 ft 4 kts 265°
2026-05-04 08:13 39.87469 -75.22563 25 ft 0 kts 253°
2026-05-04 08:16 39.85731 -75.29444 2171 ft 180 kts 238°
2026-05-04 08:16 39.84696 -75.30508 2424 ft 210 kts 205°
2026-05-04 08:16 39.83107 -75.30730 2471 ft 254 kts 178°
2026-05-04 08:17 39.81312 -75.30444 3177 ft 259 kts 180°
2026-05-04 08:17 39.79535 -75.30298 4143 ft 256 kts 181°
2026-05-04 08:17 39.77742 -75.30219 4972 ft 259 kts 183°
2026-05-04 08:17 39.75925 -75.30184 5757 ft 263 kts 184°
2026-05-04 08:19 39.62585 -75.30484 10512 ft 297 kts 191°
2026-05-04 08:19 39.60475 -75.30855 10767 ft 315 kts 192°
2026-05-04 08:20 39.58237 -75.31275 11005 ft 333 kts 192°
2026-05-04 08:20 39.55884 -75.31718 11235 ft 351 kts 192°
2026-05-04 08:20 39.53410 -75.32177 11449 ft 367 kts 191°
2026-05-04 08:20 39.50829 -75.32651 11660 ft 382 kts 191°
2026-05-04 08:21 39.48165 -75.33133 12037 ft 389 kts 191°
2026-05-04 08:21 39.45475 -75.33614 12517 ft 392 kts 191°
2026-05-04 08:21 39.42765 -75.34107 13019 ft 394 kts 191°
2026-05-04 08:21 39.40038 -75.34594 13534 ft 397 kts 191°
2026-05-04 08:22 39.37292 -75.35085 14013 ft 399 kts 191°
2026-05-04 08:22 39.34533 -75.35579 14408 ft 402 kts 191°
2026-05-04 08:24 39.14602 -75.39150 17778 ft 426 kts 192°
2026-05-04 08:24 39.11651 -75.39678 18232 ft 429 kts 192°
2026-05-04 08:24 39.08679 -75.40207 18629 ft 432 kts 193°
2026-05-04 08:24 39.05700 -75.40736 19050 ft 434 kts 193°
2026-05-04 08:25 39.02699 -75.41271 19466 ft 436 kts 193°
2026-05-04 08:25 38.99688 -75.41802 19885 ft 438 kts 193°
2026-05-04 08:25 38.96662 -75.42334 20277 ft 440 kts 193°
2026-05-04 08:25 38.93628 -75.42872 20666 ft 442 kts 193°
2026-05-04 08:26 38.90572 -75.43420 21072 ft 444 kts 193°
2026-05-04 08:27 38.68819 -75.47263 23834 ft 457 kts 195°
2026-05-04 08:28 38.65627 -75.47826 24256 ft 456 kts 195°
2026-05-04 08:28 38.62501 -75.48372 24759 ft 452 kts 196°
2026-05-04 08:28 38.59391 -75.48921 25259 ft 449 kts 196°
2026-05-04 08:28 38.56308 -75.49462 25775 ft 446 kts 196°
2026-05-04 08:29 38.53243 -75.50000 26269 ft 443 kts 196°
2026-05-04 08:29 38.50201 -75.50536 26751 ft 440 kts 196°
2026-05-04 08:29 38.47171 -75.51069 27223 ft 438 kts 196°
2026-05-04 08:31 38.28042 -75.58411 30363 ft 391 kts 221°
2026-05-04 08:33 38.12535 -75.71986 32415 ft 382 kts 220°
2026-05-04 08:33 38.10316 -75.73911 32682 ft 381 kts 220°
2026-05-04 08:35 37.95124 -75.87044 34123 ft 376 kts 220°
2026-05-04 08:35 37.92958 -75.88911 34143 ft 376 kts 220°
2026-05-04 08:35 37.88635 -75.92641 34123 ft 376 kts 220°
2026-05-04 08:37 37.73481 -76.05652 34110 ft 376 kts 219°
2026-05-04 08:38 37.69144 -76.09360 34108 ft 376 kts 219°
2026-05-04 08:38 37.64805 -76.13069 34109 ft 376 kts 219°
2026-05-04 08:40 37.46798 -76.27124 34112 ft 381 kts 217°
2026-05-04 08:41 37.42256 -76.30565 34115 ft 381 kts 217°
2026-05-04 08:41 37.37713 -76.33999 34086 ft 382 kts 217°
2026-05-04 08:42 37.33161 -76.37437 34108 ft 382 kts 217°
2026-05-04 08:42 37.28604 -76.40877 34119 ft 382 kts 217°
2026-05-04 08:43 37.24042 -76.44315 34130 ft 382 kts 217°
2026-05-04 08:43 37.19476 -76.47753 34130 ft 383 kts 217°
2026-05-04 08:44 37.14899 -76.51189 34127 ft 385 kts 216°
2026-05-04 08:46 36.96463 -76.64986 34122 ft 386 kts 216°
2026-05-04 08:46 36.91827 -76.68443 34107 ft 389 kts 216°
2026-05-04 08:47 36.87929 -76.71349 34133 ft 390 kts 216°
2026-05-04 08:47 36.83270 -76.74813 34142 ft 390 kts 216°
2026-05-04 08:48 36.78607 -76.78272 34146 ft 390 kts 216°
2026-05-04 08:48 36.73944 -76.81729 34106 ft 390 kts 216°
2026-05-04 08:49 36.69260 -76.85199 34138 ft 392 kts 216°
2026-05-04 08:50 36.52772 -76.97366 34142 ft 394 kts 216°
2026-05-04 08:51 36.48037 -77.00853 34121 ft 397 kts 216°
2026-05-04 08:51 36.43276 -77.04344 34141 ft 397 kts 216°
2026-05-04 08:52 36.38515 -77.07837 34151 ft 398 kts 216°
2026-05-04 08:52 36.33750 -77.11327 34153 ft 398 kts 216°
2026-05-04 08:54 36.14561 -77.25331 34149 ft 402 kts 216°
2026-05-04 08:55 36.09740 -77.28833 34144 ft 402 kts 216°
2026-05-04 08:55 36.04927 -77.32368 34103 ft 403 kts 218°
2026-05-04 09:01 35.58245 -77.77187 34145 ft 411 kts 222°
2026-05-04 09:01 35.53725 -77.81496 34147 ft 411 kts 222°
2026-05-04 09:02 35.49205 -77.85806 34150 ft 411 kts 222°
2026-05-04 09:02 35.44680 -77.90111 34149 ft 412 kts 222°
2026-05-04 09:03 35.40155 -77.94409 34149 ft 412 kts 222°
2026-05-04 09:03 35.35620 -77.98711 34140 ft 413 kts 223°
2026-05-04 09:04 35.31069 -78.03020 34140 ft 414 kts 223°
2026-05-04 09:04 35.26510 -78.07331 34139 ft 414 kts 223°
2026-05-04 09:05 35.21932 -78.11664 34137 ft 414 kts 223°
2026-05-04 09:05 35.17373 -78.15961 34136 ft 414 kts 223°
2026-05-04 09:06 35.12796 -78.20275 34145 ft 416 kts 222°
2026-05-04 09:08 34.94425 -78.37518 34157 ft 417 kts 222°
2026-05-04 09:08 34.89809 -78.41832 34146 ft 420 kts 222°
2026-05-04 09:09 34.85175 -78.46164 34149 ft 420 kts 222°
2026-05-04 09:09 34.80537 -78.50491 34143 ft 420 kts 222°
2026-05-04 09:10 34.75894 -78.54814 34149 ft 420 kts 222°
2026-05-04 09:10 34.71217 -78.59161 34157 ft 420 kts 222°
2026-05-04 09:11 34.66544 -78.63499 34150 ft 423 kts 222°
2026-05-04 09:11 34.61863 -78.67835 34166 ft 423 kts 222°
2026-05-04 09:12 34.57166 -78.72184 34156 ft 426 kts 223°
2026-05-04 09:14 34.38051 -78.89329 34135 ft 430 kts 220°
2026-05-04 09:14 34.33146 -78.93459 34140 ft 430 kts 220°
2026-05-04 09:15 34.28239 -78.97595 34142 ft 430 kts 220°
2026-05-04 09:15 34.23330 -79.01726 34116 ft 431 kts 220°
2026-05-04 09:17 34.00938 -79.20498 34147 ft 437 kts 220°
2026-05-04 09:18 33.95931 -79.24683 34145 ft 439 kts 220°
2026-05-04 09:18 33.90908 -79.28870 34155 ft 439 kts 220°
2026-05-04 09:19 33.85880 -79.33052 34159 ft 439 kts 220°
2026-05-04 09:19 33.80838 -79.37229 34144 ft 440 kts 220°
2026-05-04 09:20 33.75799 -79.41407 34117 ft 440 kts 220°
2026-05-04 09:20 33.71553 -79.44930 34144 ft 445 kts 221°
2026-05-04 09:21 33.66455 -79.49152 34147 ft 446 kts 221°
2026-05-04 09:21 33.61348 -79.53369 34148 ft 446 kts 221°
2026-05-04 09:22 33.56238 -79.57584 34151 ft 446 kts 221°
2026-05-04 09:22 33.51126 -79.61797 34116 ft 446 kts 220°
2026-05-04 09:23 33.46003 -79.66023 34140 ft 447 kts 220°
2026-05-04 09:23 33.40866 -79.70243 34147 ft 448 kts 220°
2026-05-04 09:25 33.20260 -79.87134 34148 ft 451 kts 220°
2026-05-04 09:26 33.15079 -79.91360 34150 ft 451 kts 220°
2026-05-04 09:26 33.09893 -79.95569 34149 ft 451 kts 220°
2026-05-04 09:27 33.04708 -79.99787 34143 ft 451 kts 220°
2026-05-04 09:27 32.99525 -80.03998 34139 ft 451 kts 220°
2026-05-04 09:28 32.94339 -80.08219 34139 ft 451 kts 220°
2026-05-04 09:28 32.89158 -80.12425 34141 ft 451 kts 220°
2026-05-04 09:29 32.83959 -80.16618 34141 ft 451 kts 220°
2026-05-04 09:29 32.78722 -80.20855 34142 ft 453 kts 221°
2026-05-04 09:30 32.73509 -80.25062 34135 ft 453 kts 220°
2026-05-04 09:30 32.68286 -80.29266 34146 ft 453 kts 220°
2026-05-04 09:31 32.63063 -80.33461 34144 ft 453 kts 220°
2026-05-04 09:31 32.57787 -80.37662 34140 ft 455 kts 218°
2026-05-04 09:32 32.52281 -80.41429 34121 ft 457 kts 216°
2026-05-04 09:34 32.30151 -80.56316 34133 ft 458 kts 216°
2026-05-04 09:34 32.24613 -80.60024 34117 ft 457 kts 216°
2026-05-04 09:35 32.19084 -80.63729 34144 ft 457 kts 216°
2026-05-04 09:35 32.13553 -80.67435 34148 ft 457 kts 216°
2026-05-04 09:37 31.91464 -80.82200 34116 ft 455 kts 216°
2026-05-04 09:38 31.85955 -80.85868 34117 ft 455 kts 215°
2026-05-04 09:38 31.80445 -80.89527 34121 ft 455 kts 215°
2026-05-04 09:39 31.74931 -80.93183 34093 ft 455 kts 216°
2026-05-04 09:39 31.69410 -80.96838 34118 ft 452 kts 216°
2026-05-04 09:40 31.63967 -81.00438 34124 ft 452 kts 216°
2026-05-04 09:40 31.58441 -81.04062 34125 ft 453 kts 214°
2026-05-04 09:42 31.36185 -81.17702 34128 ft 451 kts 213°
2026-05-04 09:43 31.30580 -81.21023 34137 ft 452 kts 213°
2026-05-04 09:43 31.24977 -81.24339 34140 ft 451 kts 213°
2026-05-04 09:44 31.19282 -81.27448 34114 ft 456 kts 204°
2026-05-04 09:44 31.16155 -81.28247 34115 ft 466 kts 192°
2026-05-04 09:46 30.93203 -81.28224 34119 ft 469 kts 186°
2026-05-04 09:46 30.86676 -81.28209 34144 ft 469 kts 186°
2026-05-04 09:47 30.80145 -81.28193 34149 ft 469 kts 186°
2026-05-04 09:49 30.54034 -81.27681 34137 ft 472 kts 184°
2026-05-04 09:51 30.31109 -81.25954 34130 ft 472 kts 184°
2026-05-04 09:51 30.24558 -81.25464 34129 ft 472 kts 184°
2026-05-04 09:52 30.18012 -81.24972 34137 ft 472 kts 184°
2026-05-04 09:52 30.11456 -81.24481 34136 ft 472 kts 184°
2026-05-04 09:53 30.04919 -81.23992 34123 ft 470 kts 184°
2026-05-04 09:53 29.98390 -81.23506 34136 ft 470 kts 184°
2026-05-04 09:54 29.91859 -81.23021 34139 ft 470 kts 184°
2026-05-04 09:54 29.85338 -81.22534 34138 ft 470 kts 184°
2026-05-04 09:54 29.82089 -81.22292 33397 ft 469 kts 184°
2026-05-04 09:55 29.78795 -81.22052 32098 ft 479 kts 184°
2026-05-04 09:55 29.75450 -81.21806 31025 ft 483 kts 183°
2026-05-04 09:55 29.72092 -81.21555 30016 ft 485 kts 182°
2026-05-04 09:55 29.68719 -81.21294 28945 ft 485 kts 182°
2026-05-04 09:56 29.65364 -81.21003 28020 ft 484 kts 181°
2026-05-04 09:56 29.62006 -81.20707 27104 ft 484 kts 181°
2026-05-04 09:56 29.59781 -81.20514 26483 ft 484 kts 181°
2026-05-04 09:56 29.56418 -81.20225 25540 ft 486 kts 181°
2026-05-04 09:57 29.53043 -81.19936 24617 ft 486 kts 181°
2026-05-04 09:57 29.49675 -81.19646 23848 ft 484 kts 181°
2026-05-04 09:57 29.46333 -81.19358 23057 ft 480 kts 180°
2026-05-04 09:57 29.43017 -81.19073 22397 ft 474 kts 180°
2026-05-04 09:58 29.39691 -81.18791 21968 ft 482 kts 180°
2026-05-04 09:58 29.36356 -81.18508 21578 ft 478 kts 180°
2026-05-04 09:58 29.33068 -81.18227 21087 ft 469 kts 180°
2026-05-04 10:00 29.11661 -81.13894 16726 ft 439 kts 161°
2026-05-04 10:00 29.08832 -81.12630 16182 ft 434 kts 161°
2026-05-04 10:02 28.89537 -81.07223 13227 ft 369 kts 180°
2026-05-04 10:04 28.74391 -81.12810 10780 ft 290 kts 203°
2026-05-04 10:04 28.72532 -81.13587 10486 ft 281 kts 203°
2026-05-04 10:04 28.70715 -81.14332 10194 ft 275 kts 201°
2026-05-04 10:04 28.68871 -81.14892 9813 ft 274 kts 196°
2026-05-04 10:05 28.67016 -81.15369 9380 ft 273 kts 195°
2026-05-04 10:05 28.65160 -81.15842 8969 ft 274 kts 195°
2026-05-04 10:05 28.63297 -81.16319 8590 ft 275 kts 195°
2026-05-04 10:05 28.61425 -81.16804 8227 ft 276 kts 195°
2026-05-04 10:06 28.59534 -81.17295 8017 ft 280 kts 194°
2026-05-04 10:06 28.57631 -81.17789 7984 ft 280 kts 194°
2026-05-04 10:06 28.55727 -81.18283 7990 ft 280 kts 194°
2026-05-04 10:08 28.44437 -81.18728 6583 ft 248 kts 181°
2026-05-04 10:08 28.42716 -81.18742 6227 ft 247 kts 180°
2026-05-04 10:08 28.41001 -81.18757 5821 ft 247 kts 180°
2026-05-04 10:08 28.39275 -81.18770 5484 ft 248 kts 180°
2026-05-04 10:09 28.37555 -81.18783 5196 ft 245 kts 180°
2026-05-04 10:09 28.35882 -81.18795 5004 ft 234 kts 180°
2026-05-04 10:09 28.34291 -81.18808 4965 ft 227 kts 180°
2026-05-04 10:09 28.32717 -81.18822 4977 ft 226 kts 180°
2026-05-04 10:10 28.31143 -81.18836 4994 ft 226 kts 180°
2026-05-04 10:10 28.29570 -81.18846 5001 ft 225 kts 180°
2026-05-04 10:10 28.28001 -81.18881 4966 ft 224 kts 186°
2026-05-04 10:10 28.26533 -81.19388 4532 ft 223 kts 212°
2026-05-04 10:11 28.25399 -81.20592 4020 ft 226 kts 238°
2026-05-04 10:11 28.24830 -81.22259 3553 ft 225 kts 265°
2026-05-04 10:11 28.24940 -81.23983 3144 ft 222 kts 291°
2026-05-04 10:11 28.25573 -81.25560 3014 ft 219 kts 303°
2026-05-04 10:12 28.26341 -81.27079 2994 ft 218 kts 308°
2026-05-04 10:12 28.27427 -81.28152 2984 ft 209 kts 345°
2026-05-04 10:12 28.28834 -81.28372 2818 ft 203 kts
2026-05-04 10:12 28.30240 -81.28278 2541 ft 202 kts
2026-05-04 10:13 28.31635 -81.28189 2248 ft 200 kts
2026-05-04 10:13 28.33010 -81.28168 1950 ft 193 kts
2026-05-04 10:13 28.34293 -81.28166 1829 ft 174 kts
2026-05-04 10:13 28.35432 -81.28175 1720 ft 153 kts
2026-05-04 10:14 28.36471 -81.28184 1592 ft 144 kts
2026-05-04 10:14 28.37474 -81.28193 1583 ft 144 kts
2026-05-04 10:16 28.43719 -81.28253 112 ft 16 kts 355°
2026-05-04 10:16 28.43831 -81.28295 113 ft 18 kts 324°
2026-05-04 10:16 28.43878 -81.28369 113 ft 11 kts 294°
2026-05-04 10:16 28.43878 -81.28461 113 ft 13 kts 263°
2026-05-04 10:17 28.43871 -81.28568 112 ft 14 kts 266°
2026-05-04 10:17 28.43871 -81.28686 112 ft 16 kts 271°
2026-05-04 10:19 28.43583 -81.29266 109 ft 17 kts 206°
2026-05-04 10:19 28.43553 -81.29394 112 ft 19 kts 267°
2026-05-04 10:19 28.43549 -81.29521 111 ft 9 kts 270°
2026-05-04 10:19 28.43552 -81.29597 109 ft 10 kts 274°
2026-05-04 10:20 28.43553 -81.29684 107 ft 12 kts 267°
2026-05-04 10:20 28.43549 -81.29783 109 ft 14 kts 269°
2026-05-04 10:20 28.43580 -81.29880 107 ft 15 kts 336°
2026-05-04 10:20 28.43653 -81.29889 107 ft 5 kts 356°
2026-05-04 10:21 28.43675 -81.29918 107 ft 5 kts 282°
2026-05-04 10:21 28.43680 -81.29960 106 ft 6 kts 272°
2026-05-04 10:21 28.43681 -81.29989 106 ft 0 kts 271°